Flag for Estonia Weather past 2 weeks in Tartu, Estonia

Now
50 °F

Overcast.


Feels Like: 50 °F
Forecast: 43 / 67 °F
Wind: 2 mph from North

Location: Tartu/Ulenurme

Current Time: Sep 2, 2014 at 8:14:29 AM

Latest Report: Sep 2, 2014 at 6:50 AM


Visibility: N/A

Pressure: 30.21 "Hg

Humidity: 88%

Dew point: 46 °F

Location of TartuLocation

Historic Weather in Tartu — Graph

°F

Tartu temperature yesterday

Maximum temperature yesterday: 61 °F (at 3:50 PM)
Minimum temperature yesterday: 48 °F (at 11:50 PM)
Average temperature yesterday: 54 °F

Past Weeks' High & Low Weather Summary

 TemperatureHumidityPressure
High70 °F (Aug 18, 1:50 PM)100% (Aug 29, 5:50 AM)30.21 "Hg (Aug 29, 5:50 AM)
Low41 °F (Aug 31, 4:50 AM)46% (Aug 18, 1:50 PM)29.39 "Hg (Aug 27, 7:50 AM)
Average56 °F81%29.78 "Hg
* Reported Aug 18 6:50 AM — Sep 2 6:50 AM, Tartu, Weather by CustomWeather, © 2014

Note: Actual official high and low records may vary slightly from our data, if they occured in-between our weather recording intervals... More about our weather records

Advertising

Tartu weather history for previous 24 hours

 ConditionsComfort  
Time TempWeatherWind HumidityBarometerVisibility
6:50 AM
Sep 2
50 °FOvercast.2 mph88%30.21 "HgN/A
5:50 AM48 °FOvercast.2 mph94%30.21 "HgN/A
4:50 AM50 °FOvercast.2 mph94%30.21 "HgN/A
3:50 AM46 °FPassing clouds.2 mph100%30.21 "Hg4 mi
2:50 AM43 °FQuite cool.3 mph93%30.21 "Hg1 mi
1:50 AM45 °FPassing clouds.2 mph93%30.21 "Hg0 mi
12:50 AM48 °FCool.1 mph87%30.18 "Hg1 mi
11:50 PM
Sep 1
48 °FPassing clouds.3 mph94%30.18 "HgN/A
10:50 PM50 °FPassing clouds.No wind88%30.18 "Hg4 mi
9:50 PM52 °FOvercast.No wind88%30.18 "HgN/A
8:50 PM54 °FScattered clouds.1 mph82%30.18 "HgN/A
7:50 PM55 °FCool.3 mph77%30.18 "HgN/A
6:50 PM57 °FScattered clouds.10 mph72%30.18 "HgN/A
5:50 PM59 °FScattered clouds.9 mph68%30.18 "HgN/A
4:50 PM59 °FScattered clouds.10 mph63%30.18 "HgN/A
3:50 PM61 °FScattered clouds.9 mph68%30.18 "HgN/A
2:50 PM59 °FBroken clouds.10 mph72%30.21 "HgN/A
1:50 PM57 °FPartly sunny.9 mph77%30.21 "HgN/A
12:50 PM55 °FBroken clouds.8 mph82%30.21 "HgN/A
11:50 AM55 °FBroken clouds.8 mph88%30.21 "HgN/A
10:50 AM54 °FBroken clouds.7 mph94%30.21 "HgN/A
9:50 AM54 °FMostly cloudy.7 mph94%30.18 "HgN/A
8:50 AM54 °FLight rain. Mostly cloudy.5 mph94%30.18 "Hg4 mi
Weather by CustomWeather, © 2014

See weather overviewHow to use our weather pages